| time (UTC) | temp C | wind direction | speed KPH | gust KPH | rain 1hr cm | rain 24hr cm | rain mn cm | humidity % | barometer mb |
| 20260903025600 | 27 | 245 | 0.0 | 3.2 | 0.00 | 0.00 | 0.00 | 76 | 1016.8 |
| 20260903025103 | 27 | 0 | 0.0 | 4.8 | 0.00 | 0.00 | 0.00 | 76 | 1016.8 |
| 20260903024604 | 27 | 0 | 0.0 | 4.8 | 0.00 | 0.00 | 0.00 | 76 | 1016.8 |
| 20260903024100 | 27 | 0 | 0.0 | 6.4 | 0.00 | 0.00 | 0.00 | 75 | 1016.9 |
| 20260903023600 | 27 | 0 | 1.6 | 6.4 | 0.00 | 0.00 | 0.00 | 75 | 1017.1 |
| 20260903023102 | 27 | 230 | 1.6 | 6.4 | 0.00 | 0.00 | 0.00 | 74 | 1017.0 |
| 20260903022600 | 27 | 0 | 0.0 | 6.4 | 0.00 | 0.00 | 0.00 | 74 | 1017.0 |
| 20260903022100 | 27 | 0 | 0.0 | 6.4 | 0.00 | 0.00 | 0.00 | 74 | 1017.1 |
| 20260903021605 | 27 | 252 | 1.6 | 8.0 | 0.00 | 0.00 | 0.00 | 74 | 1017.1 |
| 20260903021101 | 27 | 270 | 1.6 | 8.0 | 0.00 | 0.00 | 0.00 | 74 | 1017.0 |
| 20260903020600 | 27 | 0 | 3.2 | 8.0 | 0.00 | 0.00 | 0.00 | 74 | 1017.0 |
| 20260903020106 | 27 | 236 | 3.2 | 8.0 | 0.00 | 0.00 | 0.00 | 74 | 1017.1 |
| 20260903015601 | 27 | 222 | 1.6 | 6.4 | 0.00 | 0.00 | 0.00 | 73 | 1017.1 |
| 20260903015103 | 27 | 232 | 0.0 | 6.4 | 0.00 | 0.00 | 0.00 | 73 | 1017.0 |
| 20260903014607 | 27 | 233 | 3.2 | 6.4 | 0.00 | 0.00 | 0.00 | 73 | 1016.9 |
| 20260903014100 | 27 | 236 | 0.0 | 9.7 | 0.00 | 0.00 | 0.00 | 73 | 1016.9 |
| 20260903013600 | 28 | 234 | 1.6 | 9.7 | 0.00 | 0.00 | 0.00 | 73 | 1016.9 |
| 20260903013102 | 28 | 239 | 1.6 | 6.4 | 0.00 | 0.00 | 0.00 | 73 | 1016.9 |
| 20260903012600 | 28 | 258 | 0.0 | 6.4 | 0.00 | 0.00 | 0.00 | 72 | 1016.8 |
| 20260903012100 | 28 | 0 | 1.6 | 6.4 | 0.00 | 0.00 | 0.00 | 72 | 1016.8 |
| 20260903011620 | 28 | 0 | 3.2 | 9.7 | 0.00 | 0.00 | 0.00 | 72 | 1016.8 |
| 20260903011100 | 28 | 253 | 3.2 | 9.7 | 0.00 | 0.00 | 0.00 | 72 | 1016.8 |
| 20260903010558 | 28 | 265 | 3.2 | 9.7 | 0.00 | 0.00 | 0.00 | 72 | 1016.7 |
| 20260903010108 | 28 | 217 | 3.2 | 9.7 | 0.00 | 0.00 | 0.00 | 72 | 1016.7 |
| 20260903005601 | 28 | 222 | 4.8 | 9.7 | 0.00 | 0.00 | 0.00 | 72 | 1016.7 |
| 20260903005100 | 28 | 257 | 3.2 | 12.9 | 0.00 | 0.00 | 0.00 | 72 | 1016.6 |
| 20260903004609 | 28 | 238 | 3.2 | 12.9 | 0.00 | 0.00 | 0.00 | 71 | 1016.7 |
| 20260903004100 | 28 | 258 | 4.8 | 12.9 | 0.00 | 0.00 | 0.00 | 72 | 1016.6 |
| 20260903003604 | 28 | 243 | 1.6 | 8.0 | 0.00 | 0.00 | 0.00 | 71 | 1016.6 |
| 20260903003105 | 28 | 227 | 3.2 | 8.0 | 0.00 | 0.00 | 0.00 | 71 | 1016.5 |
| 20260903002600 | 29 | 223 | 4.8 | 8.0 | 0.00 | 0.00 | 0.00 | 71 | 1016.6 |
| 20260903002058 | 29 | 228 | 3.2 | 8.0 | 0.00 | 0.00 | 0.00 | 70 | 1016.5 |
| 20260903001607 | 29 | 244 | 3.2 | 8.0 | 0.00 | 0.00 | 0.00 | 70 | 1016.5 |
| 20260903001057 | 30 | 230 | 3.2 | 9.7 | 0.00 | 0.00 | 0.00 | 69 | 1016.5 |
| 20260903000557 | 30 | 236 | 3.2 | 9.7 | 0.00 | 0.00 | 0.00 | 69 | 1016.6 |
| 20260903000108 | 30 | 0 | 1.6 | 9.7 | 0.00 | 0.00 | 0.00 | 68 | 1016.5 |
| 20260902235556 | 30 | 215 | 3.2 | 14.5 | 0.00 | 0.00 | 0.00 | 68 | 1016.6 |
| 20260902235056 | 30 | 239 | 4.8 | 14.5 | 0.00 | 0.00 | 0.00 | 67 | 1016.4 |
| 20260902234606 | 30 | 217 | 3.2 | 12.9 | 0.00 | 0.00 | 0.00 | 66 | 1016.3 |
| 20260902234056 | 30 | 213 | 4.8 | 9.7 | 0.00 | 0.00 | 0.00 | 66 | 1016.2 |
| 20260902233556 | 31 | 253 | 3.2 | 11.3 | 0.00 | 0.00 | 0.00 | 65 | 1016.2 |
| 20260902233104 | 31 | 244 | 4.8 | 12.9 | 0.00 | 0.00 | 0.00 | 65 | 1016.3 |
| 20260902232558 | 31 | 229 | 4.8 | 12.9 | 0.00 | 0.00 | 0.00 | 64 | 1016.2 |
| 20260902232057 | 31 | 263 | 4.8 | 12.9 | 0.00 | 0.00 | 0.00 | 63 | 1016.1 |
| 20260902231610 | 31 | 216 | 3.2 | 12.9 | 0.00 | 0.00 | 0.00 | 63 | 1016.0 |
| 20260902231057 | 31 | 235 | 6.4 | 12.9 | 0.00 | 0.00 | 0.00 | 62 | 1016.1 |
| 20260902230556 | 31 | 232 | 4.8 | 14.5 | 0.00 | 0.00 | 0.00 | 62 | 1016.2 |
| 20260902230107 | 32 | 250 | 4.8 | 14.5 | 0.00 | 0.00 | 0.00 | 61 | 1016.3 |
| 20260902225557 | 32 | 246 | 6.4 | 14.5 | 0.00 | 0.00 | 0.00 | 60 | 1016.3 |
| 20260902225057 | 32 | 246 | 4.8 | 12.9 | 0.00 | 0.00 | 0.00 | 59 | 1016.3 |
| 20260902224604 | 32 | 257 | 4.8 | 14.5 | 0.00 | 0.00 | 0.00 | 59 | 1016.3 |
| 20260902224056 | 32 | 260 | 3.2 | 14.5 | 0.00 | 0.00 | 0.00 | 58 | 1016.3 |
| 20260902223556 | 32 | 250 | 4.8 | 16.1 | 0.00 | 0.00 | 0.00 | 57 | 1016.3 |
| 20260902223108 | 33 | 209 | 4.8 | 16.1 | 0.00 | 0.00 | 0.00 | 57 | 1016.3 |
| 20260902222556 | 33 | 261 | 4.8 | 14.5 | 0.00 | 0.00 | 0.00 | 57 | 1016.3 |
| 20260902222056 | 33 | 0 | 4.8 | 12.9 | 0.00 | 0.00 | 0.00 | 57 | 1016.2 |
| 20260902221609 | 33 | 219 | 4.8 | 16.1 | 0.00 | 0.00 | 0.00 | 56 | 1016.3 |
| 20260902221057 | 33 | 0 | 4.8 | 16.1 | 0.00 | 0.00 | 0.00 | 56 | 1016.3 |
| 20260902220557 | 33 | 237 | 8.0 | 16.1 | 0.00 | 0.00 | 0.00 | 55 | 1016.3 |
| 20260902220112 | 33 | 244 | 8.0 | 16.1 | 0.00 | 0.00 | 0.00 | 54 | 1016.5 |
| 20260902215556 | 33 | 269 | 4.8 | 14.5 | 0.00 | 0.00 | 0.00 | 55 | 1016.3 |
| 20260902215056 | 33 | 238 | 6.4 | 20.9 | 0.00 | 0.00 | 0.00 | 54 | 1016.4 |
| 20260902214602 | 33 | 262 | 6.4 | 20.9 | 0.00 | 0.00 | 0.00 | 53 | 1016.5 |
| 20260902214100 | 33 | 250 | 9.7 | 22.5 | 0.00 | 0.00 | 0.00 | 53 | 1016.3 |
| 20260902213557 | 33 | 275 | 6.4 | 22.5 | 0.00 | 0.00 | 0.00 | 54 | 1016.5 |
| 20260902213107 | 33 | 219 | 9.7 | 22.5 | 0.00 | 0.00 | 0.00 | 54 | 1016.4 |
| 20260902212559 | 33 | 279 | 9.7 | 20.9 | 0.00 | 0.00 | 0.00 | 55 | 1016.4 |
| 20260902212057 | 33 | 257 | 11.3 | 20.9 | 0.00 | 0.00 | 0.00 | 54 | 1016.5 |
| 20260902211604 | 33 | 281 | 9.7 | 20.9 | 0.00 | 0.00 | 0.00 | 53 | 1016.5 |
| 20260902211100 | 33 | 276 | 11.3 | 24.1 | 0.00 | 0.00 | 0.00 | 53 | 1016.5 |
| 20260902210600 | 33 | 241 | 9.7 | 24.1 | 0.00 | 0.00 | 0.00 | 54 | 1016.5 |
| 20260902210103 | 33 | 232 | 9.7 | 19.3 | 0.00 | 0.00 | 0.00 | 54 | 1016.6 |
| 20260902205601 | 34 | 257 | 8.0 | 16.1 | 0.00 | 0.00 | 0.00 | 53 | 1016.7 |
| 20260902205100 | 33 | 203 | 9.7 | 19.3 | 0.00 | 0.00 | 0.00 | 53 | 1016.6 |
| 20260902204608 | 34 | 257 | 9.7 | 19.3 | 0.00 | 0.00 | 0.00 | 53 | 1016.7 |
| 20260902204101 | 34 | 277 | 8.0 | 25.7 | 0.00 | 0.00 | 0.00 | 53 | 1016.9 |
| 20260902203559 | 33 | 216 | 9.7 | 25.7 | 0.00 | 0.00 | 0.00 | 52 | 1016.9 |
| 20260902203107 | 34 | 251 | 12.9 | 25.7 | 0.00 | 0.00 | 0.00 | 50 | 1017.0 |
| 20260902202604 | 34 | 262 | 11.3 | 22.5 | 0.00 | 0.00 | 0.00 | 52 | 1017.1 |
| 20260902202057 | 34 | 269 | 8.0 | 19.3 | 0.00 | 0.00 | 0.00 | 54 | 1017.1 |
| 20260902201606 | 34 | 246 | 9.7 | 19.3 | 0.00 | 0.00 | 0.00 | 54 | 1017.2 |
| 20260902201059 | 34 | 267 | 8.0 | 19.3 | 0.00 | 0.00 | 0.00 | 55 | 1017.3 |
| 20260902200557 | 33 | 275 | 9.7 | 20.9 | 0.00 | 0.00 | 0.00 | 55 | 1017.2 |
| 20260902200119 | 33 | 252 | 11.3 | 20.9 | 0.00 | 0.00 | 0.00 | 57 | 1017.2 |
| 20260902195557 | 34 | 253 | 11.3 | 20.9 | 0.00 | 0.00 | 0.00 | 55 | 1017.3 |
| 20260902195100 | 34 | 265 | 9.7 | 20.9 | 0.00 | 0.00 | 0.00 | 55 | 1017.4 |
| 20260902194607 | 34 | 265 | 8.0 | 20.9 | 0.00 | 0.00 | 0.00 | 57 | 1017.4 |
| 20260902194059 | 33 | 287 | 9.7 | 24.1 | 0.00 | 0.00 | 0.00 | 56 | 1017.4 |
| 20260902193559 | 33 | 196 | 8.0 | 25.7 | 0.00 | 0.00 | 0.00 | 55 | 1017.4 |
| 20260902193107 | 33 | 204 | 11.3 | 25.7 | 0.00 | 0.00 | 0.00 | 54 | 1017.5 |
| 20260902192602 | 33 | 193 | 11.3 | 27.4 | 0.00 | 0.00 | 0.00 | 53 | 1017.5 |
| 20260902192104 | 33 | 191 | 12.9 | 27.4 | 0.00 | 0.00 | 0.00 | 54 | 1017.6 |
| 20260902191604 | 33 | 265 | 12.9 | 24.1 | 0.00 | 0.00 | 0.00 | 53 | 1017.5 |
| 20260902191059 | 34 | 194 | 11.3 | 24.1 | 0.00 | 0.00 | 0.00 | 55 | 1017.7 |
| 20260902190559 | 34 | 250 | 11.3 | 22.5 | 0.00 | 0.00 | 0.00 | 55 | 1017.8 |
| 20260902190104 | 34 | 261 | 8.0 | 16.1 | 0.00 | 0.00 | 0.00 | 54 | 1017.8 |
| 20260902185557 | 34 | 270 | 4.8 | 19.3 | 0.00 | 0.00 | 0.00 | 56 | 1017.9 |
| 20260902185057 | 34 | 287 | 11.3 | 19.3 | 0.00 | 0.00 | 0.00 | 54 | 1017.8 |
| 20260902184658 | 34 | 252 | 9.7 | 19.3 | 0.00 | 0.00 | 0.00 | 54 | 1017.9 |
| 20260902184059 | 34 | 203 | 12.9 | 19.3 | 0.00 | 0.00 | 0.00 | 55 | 1017.9 |
| 20260902183601 | 34 | 276 | 6.4 | 17.7 | 0.00 | 0.00 | 0.00 | 54 | 1017.9 |
| 20260902183108 | 34 | 228 | 8.0 | 19.3 | 0.00 | 0.00 | 0.00 | 53 | 1018.0 |
| 20260902182600 | 34 | 251 | 11.3 | 20.9 | 0.00 | 0.00 | 0.00 | 53 | 1018.1 |
| 20260902182100 | 34 | 253 | 12.9 | 20.9 | 0.00 | 0.00 | 0.00 | 54 | 1018.2 |
| 20260902181604 | 34 | 212 | 6.4 | 20.9 | 0.00 | 0.00 | 0.00 | 54 | 1018.1 |
| 20260902181101 | 34 | 235 | 9.7 | 20.9 | 0.00 | 0.00 | 0.00 | 55 | 1018.0 |
| 20260902180600 | 34 | 258 | 3.2 | 16.1 | 0.00 | 0.00 | 0.00 | 55 | 1018.2 |
| 20260902180133 | 34 | 237 | 4.8 | 19.3 | 0.00 | 0.00 | 0.00 | 55 | 1018.2 |
| 20260902175600 | 34 | 282 | 9.7 | 19.3 | 0.00 | 0.00 | 0.00 | 55 | 1018.3 |
| 20260902175100 | 33 | 267 | 9.7 | 20.9 | 0.00 | 0.00 | 0.00 | 57 | 1018.3 |
| 20260902174615 | 34 | 287 | 11.3 | 20.9 | 0.00 | 0.00 | 0.00 | 53 | 1018.3 |
| 20260902174102 | 34 | 261 | 11.3 | 19.3 | 0.00 | 0.00 | 0.00 | 54 | 1018.6 |
| 20260902173557 | 34 | 298 | 8.0 | 17.7 | 0.00 | 0.00 | 0.00 | 55 | 1018.6 |
| 20260902173105 | 34 | 289 | 8.0 | 19.3 | 0.00 | 0.00 | 0.00 | 57 | 1018.8 |
| 20260902172602 | 33 | 311 | 8.0 | 19.3 | 0.00 | 0.00 | 0.00 | 56 | 1018.8 |
| 20260902172057 | 33 | 246 | 6.4 | 14.5 | 0.00 | 0.00 | 0.00 | 58 | 1018.6 |
| 20260902171626 | 33 | 260 | 8.0 | 14.5 | 0.00 | 0.00 | 0.00 | 59 | 1018.7 |
| 20260902171058 | 34 | 188 | 3.2 | 17.7 | 0.00 | 0.00 | 0.00 | 60 | 1018.7 |
| 20260902170600 | 33 | 229 | 4.8 | 20.9 | 0.00 | 0.00 | 0.00 | 57 | 1018.7 |
| 20260902170104 | 33 | 258 | 8.0 | 20.9 | 0.00 | 0.00 | 0.00 | 57 | 1018.7 |
| 20260902165602 | 33 | 281 | 6.4 | 17.7 | 0.00 | 0.00 | 0.00 | 60 | 1018.9 |
| 20260902165100 | 33 | 237 | 8.0 | 17.7 | 0.00 | 0.00 | 0.00 | 58 | 1018.9 |
| 20260902164621 | 33 | 217 | 9.7 | 17.7 | 0.00 | 0.00 | 0.00 | 59 | 1018.9 |
| 20260902164057 | 33 | 219 | 8.0 | 16.1 | 0.00 | 0.00 | 0.00 | 58 | 1018.8 |
| 20260902163600 | 33 | 302 | 6.4 | 14.5 | 0.00 | 0.00 | 0.00 | 61 | 1018.8 |
| 20260902163106 | 33 | 281 | 6.4 | 16.1 | 0.00 | 0.00 | 0.00 | 58 | 1018.9 |
| 20260902162556 | 33 | 226 | 6.4 | 16.1 | 0.00 | 0.00 | 0.00 | 59 | 1018.9 |
| 20260902162059 | 33 | 283 | 6.4 | 16.1 | 0.00 | 0.00 | 0.00 | 62 | 1018.9 |
| 20260902161612 | 33 | 248 | 8.0 | 16.1 | 0.00 | 0.00 | 0.00 | 60 | 1018.9 |
| 20260902161056 | 33 | 240 | 4.8 | 12.9 | 0.00 | 0.00 | 0.00 | 59 | 1018.8 |
| 20260902160601 | 33 | 271 | 3.2 | 14.5 | 0.00 | 0.00 | 0.00 | 59 | 1018.8 |
| 20260902160111 | 33 | 330 | 4.8 | 17.7 | 0.00 | 0.00 | 0.00 | 60 | 1018.9 |
| 20260902155557 | 33 | 342 | 8.0 | 17.7 | 0.00 | 0.00 | 0.00 | 60 | 1019.0 |
| 20260902155100 | 32 | 259 | 3.2 | 17.7 | 0.00 | 0.00 | 0.00 | 62 | 1019.0 |
| 20260902154605 | 32 | 268 | 9.7 | 17.7 | 0.00 | 0.00 | 0.00 | 60 | 1019.1 |
| 20260902154059 | 32 | 264 | 6.4 | 14.5 | 0.00 | 0.00 | 0.00 | 63 | 1019.1 |
| 20260902153600 | 32 | 288 | 4.8 | 14.5 | 0.00 | 0.00 | 0.00 | 64 | 1019.1 |
| 20260902153105 | 32 | 244 | 8.0 | 14.5 | 0.00 | 0.00 | 0.00 | 62 | 1019.1 |
| 20260902152601 | 32 | 264 | 6.4 | 14.5 | 0.00 | 0.00 | 0.00 | 63 | 1019.1 |
| 20260902152100 | 32 | 297 | 3.2 | 16.1 | 0.00 | 0.00 | 0.00 | 63 | 1019.1 |
| 20260902151605 | 31 | 267 | 6.4 | 16.1 | 0.00 | 0.00 | 0.00 | 65 | 1019.1 |
| 20260902151101 | 31 | 252 | 4.8 | 14.5 | 0.00 | 0.00 | 0.00 | 67 | 1019.1 |
| 20260902150559 | 31 | 286 | 8.0 | 17.7 | 0.00 | 0.00 | 0.00 | 65 | 1019.2 |
| 20260902150109 | 31 | 273 | 8.0 | 17.7 | 0.00 | 0.00 | 0.00 | 65 | 1019.2 |
| 20260902145556 | 31 | 279 | 6.4 | 16.1 | 0.00 | 0.00 | 0.00 | 67 | 1019.2 |
| 20260902145057 | 31 | 271 | 4.8 | 20.9 | 0.00 | 0.00 | 0.00 | 67 | 1019.1 |
| 20260902144604 | 30 | 277 | 4.8 | 20.9 | 0.00 | 0.00 | 0.00 | 68 | 1019.0 |
| 20260902144057 | 30 | 257 | 9.7 | 20.9 | 0.00 | 0.00 | 0.00 | 67 | 1019.1 |
| 20260902143600 | 30 | 262 | 6.4 | 17.7 | 0.00 | 0.00 | 0.00 | 68 | 1019.0 |
| 20260902143108 | 30 | 299 | 6.4 | 19.3 | 0.00 | 0.00 | 0.00 | 69 | 1018.9 |
| 20260902142557 | 30 | 288 | 9.7 | 19.3 | 0.00 | 0.00 | 0.00 | 70 | 1019.0 |
| 20260902142057 | 29 | 277 | 9.7 | 19.3 | 0.00 | 0.00 | 0.00 | 70 | 1019.1 |
| 20260902141603 | 29 | 257 | 6.4 | 17.7 | 0.00 | 0.00 | 0.00 | 71 | 1018.9 |
| 20260902141101 | 29 | 269 | 6.4 | 16.1 | 0.00 | 0.00 | 0.00 | 72 | 1019.0 |
| 20260902140557 | 28 | 290 | 6.4 | 19.3 | 0.00 | 0.00 | 0.00 | 72 | 1019.1 |
| 20260902135601 | 28 | 236 | 9.7 | 16.1 | 0.00 | 0.00 | 0.00 | 73 | 1018.9 |
| 20260902135100 | 28 | 260 | 6.4 | 16.1 | 0.00 | 0.00 | 0.00 | 74 | 1018.9 |
| 20260902134608 | 28 | 288 | 8.0 | 16.1 | 0.00 | 0.00 | 0.00 | 74 | 1018.9 |
| 20260902134059 | 27 | 0 | 9.7 | 22.5 | 0.00 | 0.00 | 0.00 | 75 | 1019.0 |
| 20260902133603 | 27 | 261 | 9.7 | 22.5 | 0.00 | 0.00 | 0.00 | 75 | 1019.0 |
| 20260902133105 | 27 | 252 | 4.8 | 14.5 | 0.00 | 0.00 | 0.00 | 76 | 1018.9 |
| 20260902132556 | 27 | 239 | 6.4 | 16.1 | 0.00 | 0.00 | 0.00 | 76 | 1019.0 |
| 20260902132059 | 27 | 249 | 8.0 | 17.7 | 0.00 | 0.00 | 0.00 | 77 | 1019.0 |
| 20260902131603 | 26 | 265 | 6.4 | 17.7 | 0.00 | 0.00 | 0.00 | 77 | 1018.9 |
| 20260902131102 | 26 | 253 | 6.4 | 17.7 | 0.00 | 0.00 | 0.00 | 78 | 1019.0 |
| 20260902130600 | 26 | 275 | 8.0 | 16.1 | 0.00 | 0.00 | 0.00 | 78 | 1019.1 |
| 20260902130105 | 26 | 296 | 8.0 | 16.1 | 0.00 | 0.00 | 0.00 | 79 | 1019.0 |
| 20260902125557 | 26 | 263 | 6.4 | 16.1 | 0.00 | 0.00 | 0.00 | 79 | 1019.1 |
| 20260902125057 | 26 | 346 | 8.0 | 16.1 | 0.00 | 0.00 | 0.00 | 80 | 1018.9 |
| 20260902124608 | 25 | 267 | 4.8 | 19.3 | 0.00 | 0.00 | 0.00 | 81 | 1018.8 |
| 20260902124056 | 25 | 273 | 6.4 | 19.3 | 0.00 | 0.00 | 0.00 | 81 | 1018.8 |
| 20260902123559 | 25 | 242 | 6.4 | 14.5 | 0.00 | 0.00 | 0.00 | 81 | 1018.7 |
| 20260902123105 | 25 | 260 | 6.4 | 14.5 | 0.00 | 0.00 | 0.00 | 82 | 1018.8 |
| 20260902122603 | 24 | 257 | 6.4 | 12.9 | 0.00 | 0.00 | 0.00 | 82 | 1018.8 |
| 20260902122059 | 24 | 273 | 4.8 | 12.9 | 0.00 | 0.00 | 0.00 | 83 | 1018.8 |
| 20260902121613 | 24 | 263 | 4.8 | 12.9 | 0.00 | 0.00 | 0.00 | 83 | 1018.6 |
| 20260902121057 | 23 | 244 | 4.8 | 12.9 | 0.00 | 0.00 | 0.00 | 83 | 1018.6 |
| 20260902120556 | 23 | 232 | 4.8 | 12.9 | 0.00 | 0.00 | 0.00 | 84 | 1018.8 |
| 20260902120104 | 23 | 240 | 3.2 | 12.9 | 0.00 | 0.00 | 0.00 | 84 | 1018.7 |
| 20260902115557 | 23 | 0 | 3.2 | 12.9 | 0.00 | 0.00 | 0.00 | 84 | 1018.6 |
| 20260902115100 | 23 | 217 | 3.2 | 11.3 | 0.00 | 0.00 | 0.00 | 85 | 1018.6 |
| 20260902114603 | 23 | 246 | 4.8 | 11.3 | 0.00 | 0.00 | 0.00 | 85 | 1018.6 |
| 20260902114057 | 23 | 259 | 1.6 | 8.0 | 0.00 | 0.00 | 0.00 | 85 | 1018.5 |
| 20260902113559 | 23 | 256 | 1.6 | 8.0 | 0.00 | 0.00 | 0.00 | 85 | 1018.4 |
| 20260902113111 | 23 | 263 | 1.6 | 8.0 | 0.00 | 0.00 | 0.00 | 86 | 1018.5 |
| 20260902112601 | 23 | 258 | 1.6 | 11.3 | 0.00 | 0.00 | 0.00 | 86 | 1018.4 |
| 20260902112059 | 23 | 254 | 3.2 | 12.9 | 0.00 | 0.00 | 0.00 | 86 | 1018.4 |
| 20260902111603 | 22 | 243 | 1.6 | 12.9 | 0.00 | 0.00 | 0.00 | 86 | 1018.5 |
| 20260902111058 | 22 | 0 | 3.2 | 11.3 | 0.00 | 0.00 | 0.00 | 86 | 1018.4 |
| 20260902110600 | 22 | 232 | 4.8 | 11.3 | 0.00 | 0.00 | 0.00 | 86 | 1018.4 |
| 20260902110120 | 22 | 257 | 4.8 | 9.7 | 0.00 | 0.00 | 0.00 | 86 | 1018.4 |
| 20260902105556 | 22 | 216 | 3.2 | 8.0 | 0.00 | 0.00 | 0.00 | 86 | 1018.3 |
| 20260902105059 | 22 | 239 | 3.2 | 8.0 | 0.00 | 0.00 | 0.00 | 86 | 1018.3 |
| 20260902104601 | 22 | 228 | 3.2 | 8.0 | 0.00 | 0.00 | 0.00 | 86 | 1018.2 |
| 20260902104058 | 22 | 232 | 3.2 | 9.7 | 0.00 | 0.00 | 0.00 | 86 | 1018.2 |
| 20260902103557 | 22 | 232 | 3.2 | 9.7 | 0.00 | 0.00 | 0.00 | 86 | 1018.3 |
| 20260902103102 | 22 | 252 | 1.6 | 9.7 | 0.00 | 0.00 | 0.00 | 87 | 1018.2 |
| 20260902102557 | 22 | 0 | 3.2 | 9.7 | 0.00 | 0.00 | 0.00 | 87 | 1018.3 |
| 20260902102057 | 22 | 231 | 3.2 | 8.0 | 0.00 | 0.00 | 0.00 | 87 | 1018.2 |
| 20260902101607 | 22 | 220 | 3.2 | 8.0 | 0.00 | 0.00 | 0.00 | 87 | 1018.2 |
| 20260902101102 | 22 | 232 | 1.6 | 8.0 | 0.00 | 0.00 | 0.00 | 87 | 1018.2 |
| 20260902100603 | 22 | 235 | 3.2 | 8.0 | 0.00 | 0.00 | 0.00 | 87 | 1018.3 |
| 20260902100112 | 22 | 0 | 1.6 | 9.7 | 0.00 | 0.00 | 0.00 | 87 | 1018.3 |
| 20260902095557 | 22 | 218 | 3.2 | 9.7 | 0.00 | 0.00 | 0.00 | 87 | 1018.3 |
| 20260902095057 | 22 | 221 | 3.2 | 8.0 | 0.00 | 0.00 | 0.00 | 87 | 1018.3 |
| 20260902094604 | 22 | 238 | 3.2 | 6.4 | 0.00 | 0.00 | 0.00 | 87 | 1018.3 |
| 20260902094059 | 23 | 230 | 1.6 | 6.4 | 0.00 | 0.00 | 0.00 | 87 | 1018.2 |
| 20260902093557 | 23 | 224 | 1.6 | 8.0 | 0.00 | 0.00 | 0.00 | 87 | 1018.1 |
| 20260902093104 | 23 | 0 | 1.6 | 8.0 | 0.00 | 0.00 | 0.00 | 87 | 1018.3 |
| 20260902092559 | 23 | 223 | 1.6 | 6.4 | 0.00 | 0.00 | 0.00 | 87 | 1018.2 |
| 20260902092057 | 23 | 229 | 1.6 | 4.8 | 0.00 | 0.00 | 0.00 | 87 | 1018.3 |
| 20260902091603 | 23 | 236 | 0.0 | 4.8 | 0.00 | 0.00 | 0.00 | 87 | 1018.1 |
| 20260902091057 | 23 | 0 | 0.0 | 0.0 | 0.00 | 0.00 | 0.00 | 87 | 1018.2 |
| 20260902090557 | 23 | 0 | 0.0 | 0.0 | 0.00 | 0.00 | 0.00 | 87 | 1018.2 |
| 20260902090059 | 23 | 0 | 0.0 | 0.0 | 0.00 | 0.00 | 0.00 | 86 | 1018.2 |
| 20260902085559 | 23 | 0 | 0.0 | 0.0 | 0.00 | 0.00 | 0.00 | 86 | 1018.2 |
| 20260902085059 | 23 | 0 | 0.0 | 0.0 | 0.00 | 0.00 | 0.00 | 86 | 1018.1 |
| 20260902084622 | 23 | 0 | 0.0 | 3.2 | 0.00 | 0.00 | 0.00 | 86 | 1018.2 |
| 20260902084057 | 23 | 0 | 0.0 | 3.2 | 0.00 | 0.00 | 0.00 | 86 | 1018.1 |
| 20260902083603 | 23 | 0 | 0.0 | 3.2 | 0.00 | 0.00 | 0.00 | 86 | 1018.1 |
| 20260902083102 | 23 | 0 | 0.0 | 3.2 | 0.00 | 0.00 | 0.00 | 85 | 1018.1 |
| 20260902082557 | 23 | 0 | 0.0 | 3.2 | 0.00 | 0.00 | 0.00 | 85 | 1018.0 |
| 20260902082057 | 23 | 0 | 0.0 | 0.0 | 0.00 | 0.00 | 0.00 | 84 | 1018.1 |
| 20260902081606 | 23 | 0 | 0.0 | 0.0 | 0.00 | 0.00 | 0.00 | 84 | 1018.0 |
| 20260902081057 | 23 | 0 | 0.0 | 0.0 | 0.00 | 0.00 | 0.00 | 84 | 1017.9 |
| 20260902080557 | 23 | 0 | 0.0 | 1.6 | 0.00 | 0.00 | 0.00 | 84 | 1017.8 |
| 20260902080101 | 23 | 0 | 0.0 | 1.6 | 0.00 | 0.00 | 0.00 | 84 | 1017.8 |
| 20260902075556 | 23 | 0 | 0.0 | 1.6 | 0.00 | 0.00 | 0.00 | 83 | 1017.7 |
| 20260902075100 | 23 | 0 | 0.0 | 4.8 | 0.00 | 0.00 | 0.00 | 83 | 1017.7 |
| 20260902074606 | 23 | 0 | 0.0 | 6.4 | 0.00 | 0.00 | 0.00 | 83 | 1017.8 |
| 20260902074058 | 24 | 211 | 0.0 | 6.4 | 0.00 | 0.00 | 0.00 | 83 | 1017.7 |
| 20260902073557 | 24 | 222 | 1.6 | 6.4 | 0.00 | 0.00 | 0.00 | 83 | 1017.6 |
| 20260902073106 | 24 | 236 | 0.0 | 4.8 | 0.00 | 0.00 | 0.00 | 83 | 1017.5 |
| 20260902072557 | 24 | 0 | 1.6 | 4.8 | 0.00 | 0.00 | 0.00 | 83 | 1017.5 |
| 20260902072057 | 24 | 0 | 1.6 | 4.8 | 0.00 | 0.00 | 0.00 | 82 | 1017.5 |
| 20260902071607 | 24 | 255 | 1.6 | 6.4 | 0.00 | 0.00 | 0.00 | 82 | 1017.7 |
| 20260902071057 | 24 | 0 | 0.0 | 6.4 | 0.00 | 0.00 | 0.00 | 82 | 1017.5 |
| 20260902070559 | 24 | 0 | 1.6 | 4.8 | 0.00 | 0.00 | 0.00 | 82 | 1017.5 |
| 20260902070114 | 24 | 255 | 1.6 | 6.4 | 0.00 | 0.00 | 0.00 | 82 | 1017.4 |
| 20260902065559 | 24 | 251 | 1.6 | 6.4 | 0.00 | 0.00 | 0.00 | 82 | 1017.5 |
| 20260902065100 | 24 | 0 | 0.0 | 4.8 | 0.00 | 0.00 | 0.00 | 81 | 1017.5 |
| 20260902064610 | 25 | 263 | 0.0 | 8.0 | 0.00 | 0.00 | 0.00 | 81 | 1017.6 |
| 20260902064057 | 25 | 260 | 1.6 | 8.0 | 0.00 | 0.00 | 0.00 | 81 | 1017.6 |
| 20260902063559 | 25 | 249 | 1.6 | 8.0 | 0.00 | 0.00 | 0.00 | 81 | 1017.5 |
| 20260902063105 | 25 | 0 | 1.6 | 6.4 | 0.00 | 0.00 | 0.00 | 81 | 1017.5 |
| 20260902062600 | 25 | 0 | 0.0 | 0.0 | 0.00 | 0.00 | 0.00 | 81 | 1017.5 |
| 20260902062100 | 25 | 0 | 0.0 | 4.8 | 0.00 | 0.00 | 0.00 | 81 | 1017.7 |
| 20260902061059 | 25 | 0 | 1.6 | 6.4 | 0.00 | 0.00 | 0.00 | 80 | 1017.6 |
| 20260902060557 | 25 | 305 | 0.0 | 6.4 | 0.00 | 0.00 | 0.00 | 80 | 1017.6 |
| 20260902060114 | 25 | 269 | 1.6 | 12.9 | 0.00 | 0.00 | 0.00 | 80 | 1017.5 |
| 20260902055559 | 25 | 277 | 1.6 | 12.9 | 0.00 | 0.00 | 0.00 | 79 | 1017.6 |
| 20260902055059 | 25 | 277 | 4.8 | 12.9 | 0.00 | 0.00 | 0.00 | 79 | 1017.5 |
| 20260902054604 | 25 | 284 | 4.8 | 12.9 | 0.00 | 0.00 | 0.00 | 79 | 1017.5 |
| 20260902054056 | 25 | 283 | 3.2 | 17.7 | 0.00 | 0.00 | 0.00 | 79 | 1017.4 |
| 20260902053557 | 25 | 242 | 3.2 | 17.7 | 0.00 | 0.00 | 0.00 | 79 | 1017.3 |
| 20260902053121 | 25 | 271 | 4.8 | 17.7 | 0.00 | 0.00 | 0.00 | 79 | 1017.3 |
| 20260902052559 | 26 | 227 | 6.4 | 17.7 | 0.00 | 0.00 | 0.00 | 79 | 1017.2 |
| 20260902052057 | 26 | 257 | 6.4 | 17.7 | 0.00 | 0.00 | 0.00 | 79 | 1017.2 |
| 20260902051603 | 26 | 213 | 6.4 | 17.7 | 0.00 | 0.00 | 0.00 | 79 | 1017.3 |
| 20260902051102 | 25 | 242 | 6.4 | 17.7 | 0.00 | 0.00 | 0.00 | 79 | 1017.2 |
| 20260902050559 | 25 | 190 | 8.0 | 19.3 | 0.00 | 0.00 | 0.00 | 79 | 1017.3 |
| 20260902050122 | 25 | 250 | 4.8 | 19.3 | 0.00 | 0.00 | 0.00 | 79 | 1017.3 |
| 20260902045559 | 25 | 222 | 8.0 | 19.3 | 0.00 | 0.00 | 0.00 | 79 | 1017.2 |
| 20260902045057 | 25 | 257 | 6.4 | 16.1 | 0.00 | 0.00 | 0.00 | 79 | 1017.4 |
| 20260902044607 | 25 | 238 | 6.4 | 16.1 | 0.00 | 0.00 | 0.00 | 80 | 1017.2 |
| 20260902044058 | 26 | 243 | 8.0 | 16.1 | 0.00 | 0.00 | 0.00 | 79 | 1017.4 |
| 20260902043644 | 26 | 225 | 4.8 | 16.1 | 0.00 | 0.00 | 0.00 | 79 | 1017.5 |
| 20260902043107 | 26 | 275 | 6.4 | 16.1 | 0.00 | 0.00 | 0.00 | 80 | 1017.7 |
| 20260902042557 | 26 | 259 | 4.8 | 12.9 | 0.00 | 0.00 | 0.00 | 80 | 1017.7 |
| 20260902042057 | 25 | 264 | 3.2 | 9.7 | 0.00 | 0.00 | 0.00 | 80 | 1017.7 |
| 20260902041615 | 25 | 248 | 1.6 | 14.5 | 0.00 | 0.00 | 0.00 | 80 | 1017.7 |
| 20260902041057 | 25 | 221 | 4.8 | 14.5 | 0.00 | 0.00 | 0.00 | 80 | 1017.7 |
| 20260902040557 | 25 | 251 | 4.8 | 12.9 | 0.00 | 0.00 | 0.00 | 80 | 1017.6 |
| 20260902040106 | 26 | 248 | 3.2 | 12.9 | 0.00 | 0.00 | 0.00 | 80 | 1017.6 |
| 20260902035556 | 26 | 258 | 3.2 | 11.3 | 0.00 | 0.00 | 0.00 | 80 | 1017.7 |
| 20260902035059 | 26 | 0 | 4.8 | 11.3 | 0.00 | 0.00 | 0.00 | 80 | 1017.7 |
| 20260902034604 | 26 | 233 | 3.2 | 11.3 | 0.00 | 0.00 | 0.00 | 80 | 1017.8 |
| 20260902034056 | 26 | 254 | 3.2 | 12.9 | 0.00 | 0.00 | 0.00 | 79 | 1017.8 |
| 20260902033556 | 26 | 258 | 3.2 | 12.9 | 0.00 | 0.00 | 0.00 | 79 | 1017.8 |
| 20260902033114 | 26 | 223 | 3.2 | 12.9 | 0.00 | 0.00 | 0.00 | 79 | 1017.7 |
| 20260902032557 | 26 | 257 | 4.8 | 12.9 | 0.00 | 0.00 | 0.00 | 79 | 1017.7 |
| 20260902032057 | 26 | 258 | 4.8 | 11.3 | 0.00 | 0.00 | 0.00 | 79 | 1017.6 |
| 20260902031604 | 26 | 249 | 3.2 | 11.3 | 0.00 | 0.00 | 0.00 | 79 | 1017.7 |
| 20260902031057 | 26 | 261 | 3.2 | 11.3 | 0.00 | 0.00 | 0.00 | 79 | 1017.7 |
| 20260902030557 | 26 | 270 | 3.2 | 9.7 | 0.00 | 0.00 | 0.00 | 79 | 1017.7 |
| 20260902030103 | 26 | 254 | 1.6 | 9.7 | 0.00 | 0.00 | 0.00 | 79 | 1017.7 |